Home   Weather   Brazzaville   Past weeks

Flag for Congo Past Weather in Brazzaville, Congo — Yesterday and Last 2 Weeks

Now
79 °F

Passing clouds.


Feels Like: 82 °F
Forecast: 74 / 92 °F
Wind: 3 mph from East

Location: Brazzaville / Maya-Maya

Current Time: Apr 28, 2017 at 9:27:41 pm

Latest Report: Apr 28, 2017 at 8:00 pm


Visibility: 6 mi

Pressure: 29.92 "Hg

Humidity: 79%

Dew Point: 72 °F

Location of BrazzavilleLocation

Past Weather in Brazzaville — Graph

°F

Brazzaville Temperature Yesterday

Maximum temperature yesterday: 93 °F (at 4:00 pm)
Minimum temperature yesterday: 72 °F (at 4:25 am)
Average temperature yesterday: 80 °F

High & Low Weather Summary for the Past Weeks

 TemperatureHumidityPressure
High95 °F (Apr 15, 4:00 pm)100% (Apr 23, 8:00 pm)30.04 "Hg (Apr 23, 8:00 pm)
Low72 °F (Apr 23, 8:00 pm)41% (Apr 18, 4:00 pm)29.71 "Hg (Apr 18, 4:00 pm)
Average80 °F77%29.88 "Hg
* Reported Apr 13 8:00 pm — Apr 28 8:00 pm, Brazzaville, Weather by CustomWeather, © 2017

Note: Actual official high and low records may vary slightly from our data, if they occured in-between our weather recording intervals... More about our weather records

Advertising

Brazzaville Weather History for the Previous 24 Hours

Scroll right to see more
 ConditionsComfort  
Time TempWeatherWind HumidityBarometerVisibility
8:00 pm
Fri, Apr 28
79 °FPassing clouds.3 mph79%29.92 "Hg6 mi
7:00 pm79 °FPassing clouds.3 mph79%29.89 "Hg6 mi
6:20 pm79 °FPassing clouds.2 mph79%29.86 "Hg6 mi
5:00 pm81 °FThunderstorms. Scattered clouds.8 mph74%29.83 "Hg6 mi
4:00 pm81 °FThunderstorms. Scattered clouds.6 mph66%29.86 "Hg6 mi
3:16 pm82 °FThunderstorms. Scattered clouds.9 mph62%29.83 "Hg6 mi
2:58 pm86 °FScattered clouds.16 mph59%29.83 "HgN/A
2:00 pm91 °FScattered clouds.3 mph52%29.83 "HgN/A
1:00 pm90 °FScattered clouds.3 mph55%29.89 "HgN/A
12:00 pm88 °FScattered clouds.3 mph62%29.92 "HgN/A
11:00 am88 °FPassing clouds.2 mph62%29.95 "HgN/A
10:00 am84 °FPassing clouds.2 mph66%29.98 "HgN/A
9:00 am79 °FPassing clouds.3 mph79%29.98 "HgN/A
8:00 am79 °FPassing clouds.3 mph79%29.95 "HgN/A
7:00 am77 °FPassing clouds.3 mph83%29.95 "HgN/A
6:00 am75 °FPassing clouds.3 mph89%29.92 "HgN/A
5:00 am75 °FClear.2 mph89%29.92 "Hg4 mi
4:00 am75 °FPassing clouds.No wind94%29.92 "Hg4 mi
3:00 am77 °FPassing clouds.3 mph89%29.92 "Hg4 mi
2:00 am77 °FPassing clouds.No wind94%29.92 "Hg4 mi
1:00 am77 °FClear.3 mph89%29.95 "Hg4 mi
12:00 am79 °FClear.2 mph89%29.95 "Hg4 mi
11:00 pm
Thu, Apr 27
81 °FClear.No wind84%29.92 "Hg5 mi
10:00 pm82 °FClear.2 mph79%29.92 "Hg5 mi
9:00 pm82 °FClear.2 mph74%29.89 "Hg5 mi
Weather by CustomWeather, © 2017

See weather overviewHow to use our weather pages